Lid_Strength_Index
7 7 8 11 12 10 14 13 14 13 11 8 7 7 7 7 6 6 5 5 4 3 3 3 3 2 2 2 2 2 1 1
8 8 8 10 9 14 14 17 17 14 13 12 10 9 7 7 7 6 5 5 5 4 3 3 2 2 2 2 2 2 1 1
9 11 12 11 12 12 13 14 15 16 14 9 9 8 8 6 6 6 6 5 5 4 4 3 2 2 2 2 2 2 1 1
12 8 8 10 11 11 14 15 13 14 14 7 8 7 6 7 6 5 5 5 5 4 4 3 3 2 2 2 2 2 1 1
14 11 11 11 10 10 12 13 15 15 14 7 7 7 6 6 6 6 5 5 5 4 4 4 3 2 2 2 2 2 1 2
16 13 11 12 11 10 12 15 14 13 12 10 9 8 7 6 6 7 6 5 5 5 4 4 4 3 2 2 2 2 2 2
10 10 10 11 11 10 11 12 15 12 12 10 9 8 7 6 7 7 6 5 5 5 4 4 4 5 4 2 2 2 2 2
13 10 10 12 10 10 10 9 11 11 12 8 9 8 8 6 6 7 7 5 5 4 5 4 4 4 5 5 2 2 2 2
16 11 11 14 11 10 10 9 10 13 11 9 10 9 9 9 6 8 8 7 5 4 4 4 4 4 3 5 2 2 2 2
16 13 19 11 8 9 9 8 8 9 9 7 7 6 6 7 9 9 5 5 4 4 4 3 3 2 2 2 2 2 2 2
16 16 13 10 9 9 10 11 8 9 8 7 7 6 7 6 5 6 5 4 4 3 3 3 3 3 3 3 2 3 3 2
15 17 18 11 8 6 8 14 7 7 8 8 7 12 9 6 4 7 7 7 3 3 3 3 4 2 3 3 3 3 2 2
15 17 14 9 7 6 13 14 7 7 7 7 9 8 6 5 4 4 4 3 3 4 3 5 5 4 3 3 3 2 2 2
15 16 18 7 8 12 9 8 7 8 7 7 7 5 5 5 5 4 4 4 3 4 3 3 4 4 4 5 5 4 2 2
13 13 8 7 8 7 7 8 8 8 7 7 7 6 5 5 5 4 4 4 4 4 4 3 3 3 5 6 7 6 5 2
12 9 9 9 7 7 7 7 7 7 7 7 7 7 5 5 4 4 5 4 4 5 5 4 4 3 5 6 6 7 5 3
11 10 10 8 8 8 7 7 6 6 6 6 6 6 5 5 4 4 4 4 4 5 5 4 4 4 5 6 7 7 7 3
14 9 10 10 8 8 8 8 8 7 5 4 4 5 5 5 4 4 4 4 4 5 6 5 5 6 5 6 8 8 9 4
8 8 8 8 8 7 8 8 7 7 4 5 4 4 4 5 4 4 4 4 3 4 6 6 6 6 7 7 7 8 9 10